Weather History for KRYW - August, 2013

Change the Weather History Date:

Sunday, August 25, 2013

  Actual Average (KATT) Record (KATT)
Temperature  
Mean Temperature 84 °F 85 °F  
Max Temperature 93 °F 96 °F 105 °F (1924)
Min Temperature 75 °F 74 °F 63 °F (1966)
Degree Days  
Heating Degree Days 0 0  
Month to date heating degree days 0  
Since 1 June heating degree days 0  
Since 1 July heating degree days 0  
Cooling Degree Days 19 20  
Month to date cooling degree days 523  
Year to date cooling degree days 2272  
Since 1 June cooling degree days 1659  
Growing Degree Days 34 (Base 50)    
Moisture  
Dew Point 66 °F    
Average Humidity 55    
Maximum Humidity 78    
Minimum Humidity 34    
Precipitation  
Precipitation 0.00 in 0.09 in 4.24 in (1962)
Month to date precipitation 1.74  
Year to date precipitation 21.48  
Snow  
Snow 0.00 in - - ()
Month to date snowfall  
Since 1 June snowfall  
Since 1 July snowfall  
Snow Depth -    
Sea Level Pressure  
Sea Level Pressure 30.10 in    
Wind  
Wind Speed 5 mph (East)    
Max Wind Speed 17 mph    
Max Gust Speed 24 mph    
Visibility 10 miles    
Events      
T = Trace of Precipitation, MM = Missing Value Source: NWS Daily Summary

Daily Weather History Graph

Daily Weather History Graph

Search for Another Location

Airport or City:

Trip Planner

Search our weather history database for the weather conditions in past years. The results will help you decide how hot, cold, wet, or windy it might be!

Date:

Astronomy

Aug. 25, 2013 Rise Set
Actual Time 7:04 AM CDT 8:02 PM CDT
Civil Twilight 6:39 AM CDT 8:27 PM CDT
Nautical Twilight 6:10 AM CDT 8:56 PM CDT
Astronomical Twilight 5:40 AM CDT 9:26 PM CDT
Moon 11:01 PM CDT (8/25) 11:42 AM CDT (8/25)
Length of Visible Light 13h 47m
Length of Day
12h 57m
Waning Gibbous, 75% of the Moon is Illuminated
Aug 25
Waning Gibbous
Aug 28
Last Quarter
Sep 5
New
Sep 12
First Quarter
Sep 19
Full

Hourly Weather History & Observations

Time (CDT) Temp. Heat Index Dew Point Humidity Pressure Visibility Wind Dir Wind Speed Gust Speed Precip Events Conditions
12:15 AM 82.4 °F 85.4 °F 68.0 °F 62% 30.07 in 10.0 mi South 4.6 mph - N/A   Clear
12:35 AM 82.4 °F 85.4 °F 68.0 °F 62% 30.08 in 10.0 mi South 8.1 mph - N/A   Clear
12:55 AM 82.4 °F 85.4 °F 68.0 °F 62% 30.08 in 10.0 mi South 5.8 mph - N/A   Clear
1:15 AM 80.6 °F 83.9 °F 69.8 °F 70% 30.08 in 10.0 mi Calm Calm - N/A   Clear
1:35 AM 80.6 °F 83.9 °F 69.8 °F 70% 30.08 in 10.0 mi South 3.5 mph - N/A   Clear
1:55 AM 80.6 °F 83.9 °F 69.8 °F 70% 30.08 in 10.0 mi SSW 3.5 mph - N/A   Clear
2:15 AM 80.6 °F 83.9 °F 69.8 °F 70% 30.08 in 10.0 mi SW 3.5 mph - N/A   Clear
2:35 AM 80.6 °F 83.9 °F 69.8 °F 70% 30.08 in 10.0 mi SSW 4.6 mph - N/A   Clear
2:55 AM 80.6 °F 83.9 °F 69.8 °F 70% 30.09 in 10.0 mi Calm Calm - N/A   Clear
3:15 AM 78.8 °F - 69.8 °F 74% 30.10 in 10.0 mi Calm Calm - N/A   Clear
3:35 AM 78.8 °F - 68.0 °F 69% 30.10 in 10.0 mi South 3.5 mph - N/A   Clear
3:55 AM 78.8 °F - 68.0 °F 69% 30.09 in 10.0 mi Calm Calm - N/A   Clear
4:15 AM 78.8 °F - 68.0 °F 69% 30.10 in 10.0 mi Calm Calm - N/A   Clear
4:35 AM 78.8 °F - 68.0 °F 69% 30.09 in 10.0 mi Calm Calm - N/A   Clear
4:55 AM 78.8 °F - 68.0 °F 69% 30.10 in 10.0 mi Calm Calm - N/A   Clear
5:15 AM 77.0 °F - 68.0 °F 74% 30.10 in 10.0 mi SSE 3.5 mph - N/A   Clear
5:35 AM 77.0 °F - 69.8 °F 78% 30.10 in 10.0 mi Calm Calm - N/A   Clear
5:55 AM 77.0 °F - 69.8 °F 78% 30.10 in 10.0 mi SE 3.5 mph - N/A   Clear
6:15 AM 77.0 °F - 69.8 °F 78% 30.11 in 10.0 mi Calm Calm - N/A   Clear
6:35 AM 75.2 °F - 68.0 °F 78% 30.11 in 10.0 mi Calm Calm - N/A   Clear
6:55 AM 75.2 °F - 68.0 °F 78% 30.11 in 10.0 mi Calm Calm - N/A   Clear
7:15 AM 77.0 °F - 68.0 °F 74% 30.11 in 10.0 mi Calm Calm - N/A   Clear
7:35 AM 77.0 °F - 68.0 °F 74% 30.12 in 10.0 mi Calm Calm - N/A   Clear
7:55 AM 78.8 °F - 68.0 °F 69% 30.12 in 10.0 mi Calm Calm - N/A   Clear
8:15 AM 78.8 °F - 68.0 °F 69% 30.12 in 10.0 mi Calm Calm - N/A   Clear
8:35 AM 80.6 °F 82.7 °F 66.2 °F 61% 30.13 in 10.0 mi Calm Calm - N/A   Clear
8:55 AM 80.6 °F 82.7 °F 66.2 °F 61% 30.13 in 10.0 mi West 3.5 mph - N/A   Clear
9:15 AM 82.4 °F 84.6 °F 66.2 °F 58% 30.12 in 10.0 mi WNW 3.5 mph - N/A   Clear
9:35 AM 82.4 °F 85.4 °F 68.0 °F 62% 30.13 in 10.0 mi NNE 5.8 mph - N/A   Clear
9:55 AM 86.0 °F 89.4 °F 68.0 °F 55% 30.13 in 10.0 mi ENE 6.9 mph - N/A   Clear
10:15 AM 86.0 °F 89.4 °F 68.0 °F 55% 30.13 in 10.0 mi North 9.2 mph - N/A   Mostly Cloudy
10:35 AM 87.8 °F 90.4 °F 66.2 °F 49% 30.13 in 10.0 mi NE 11.5 mph 18.4 mph N/A   Mostly Cloudy
10:55 AM 86.0 °F 87.3 °F 64.4 °F 48% 30.13 in 10.0 mi NE 9.2 mph 20.7 mph N/A   Mostly Cloudy
11:15 AM 89.6 °F 90.1 °F 62.6 °F 40% 30.13 in 10.0 mi NE 12.7 mph 24.2 mph N/A   Scattered Clouds
11:35 AM 89.6 °F 91.1 °F 64.4 °F 43% 30.13 in 10.0 mi NE 9.2 mph 24.2 mph N/A   Scattered Clouds
11:55 AM 89.6 °F 90.1 °F 62.6 °F 40% 30.13 in 10.0 mi ENE 11.5 mph 21.9 mph N/A   Scattered Clouds
12:15 PM 89.6 °F 91.1 °F 64.4 °F 43% 30.13 in 10.0 mi ENE 12.7 mph 19.6 mph N/A   Scattered Clouds
12:35 PM 89.6 °F 91.1 °F 64.4 °F 43% 30.13 in 10.0 mi NE 11.5 mph 17.3 mph N/A   Mostly Cloudy
12:55 PM 89.6 °F 91.1 °F 64.4 °F 43% 30.12 in 10.0 mi NE 11.5 mph 20.7 mph N/A   Scattered Clouds
1:15 PM 89.6 °F 90.1 °F 62.6 °F 40% 30.12 in 10.0 mi NE 12.7 mph 19.6 mph N/A   Scattered Clouds
1:35 PM 91.4 °F 92.1 °F 62.6 °F 38% 30.12 in 10.0 mi East 12.7 mph 20.7 mph N/A   Scattered Clouds
1:55 PM 91.4 °F 91.4 °F 60.8 °F 36% 30.11 in 10.0 mi East 10.4 mph 21.9 mph N/A   Mostly Cloudy
2:15 PM 91.4 °F 91.4 °F 60.8 °F 36% 30.11 in 10.0 mi East 13.8 mph 23.0 mph N/A   Mostly Cloudy
2:35 PM 91.4 °F 91.4 °F 60.8 °F 36% 30.10 in 10.0 mi ENE 17.3 mph 23.0 mph N/A   Mostly Cloudy
2:55 PM 93.2 °F 93.3 °F 60.8 °F 34% 30.10 in 10.0 mi East 11.5 mph 21.9 mph N/A   Scattered Clouds
3:15 PM 91.4 °F 92.1 °F 62.6 °F 38% 30.09 in 10.0 mi East 9.2 mph 23.0 mph N/A   Mostly Cloudy
3:35 PM 91.4 °F 92.1 °F 62.6 °F 38% 30.08 in 10.0 mi East 10.4 mph 19.6 mph N/A   Mostly Cloudy
3:55 PM 91.4 °F 92.1 °F 62.6 °F 38% 30.07 in 10.0 mi East 8.1 mph 17.3 mph N/A   Mostly Cloudy
4:15 PM 89.6 °F 91.1 °F 64.4 °F 43% 30.07 in 10.0 mi East 12.7 mph 20.7 mph N/A   Mostly Cloudy
4:35 PM 91.4 °F 92.1 °F 62.6 °F 38% 30.07 in 10.0 mi East 9.2 mph 18.4 mph N/A   Mostly Cloudy
4:55 PM 91.4 °F 92.1 °F 62.6 °F 38% 30.06 in 10.0 mi East 11.5 mph 19.6 mph N/A   Scattered Clouds
5:15 PM 91.4 °F 92.1 °F 62.6 °F 38% 30.06 in 10.0 mi East 11.5 mph 18.4 mph N/A   Scattered Clouds
5:35 PM 91.4 °F 92.1 °F 62.6 °F 38% 30.06 in 10.0 mi East 13.8 mph 19.6 mph N/A   Scattered Clouds
5:55 PM 91.4 °F 92.1 °F 62.6 °F 38% 30.06 in 10.0 mi East 12.7 mph 20.7 mph N/A   Mostly Cloudy
6:15 PM 89.6 °F 91.1 °F 64.4 °F 43% 30.06 in 10.0 mi East 11.5 mph 19.6 mph N/A   Scattered Clouds
6:35 PM 89.6 °F 91.1 °F 64.4 °F 43% 30.06 in 10.0 mi East 10.4 mph 18.4 mph N/A   Mostly Cloudy
6:55 PM 87.8 °F 89.4 °F 64.4 °F 46% 30.06 in 10.0 mi East 12.7 mph 18.4 mph N/A   Overcast
7:15 PM 87.8 °F 89.4 °F 64.4 °F 46% 30.06 in 10.0 mi East 8.1 mph - N/A   Scattered Clouds
7:35 PM 87.8 °F 88.5 °F 62.6 °F 43% 30.07 in 10.0 mi East 6.9 mph - N/A   Clear
7:55 PM 86.0 °F 86.6 °F 62.6 °F 45% 30.07 in 10.0 mi East 9.2 mph - N/A   Clear
8:15 PM 86.0 °F 86.6 °F 62.6 °F 45% 30.07 in 10.0 mi East 6.9 mph - N/A   Clear
8:35 PM 86.0 °F 86.6 °F 62.6 °F 45% 30.08 in 10.0 mi East 5.8 mph - N/A   Clear
8:55 PM 86.0 °F 86.6 °F 62.6 °F 45% 30.09 in 10.0 mi East 8.1 mph - N/A   Scattered Clouds
9:15 PM 84.2 °F 85.0 °F 62.6 °F 48% 30.10 in 10.0 mi East 8.1 mph - N/A   Scattered Clouds
9:35 PM 84.2 °F 85.0 °F 62.6 °F 48% 30.10 in 10.0 mi East 6.9 mph - N/A   Clear
9:55 PM 82.4 °F 83.4 °F 62.6 °F 51% 30.11 in 10.0 mi East 5.8 mph - N/A   Clear
10:15 PM 82.4 °F 83.4 °F 62.6 °F 51% 30.12 in 10.0 mi ESE 5.8 mph - N/A   Clear
10:35 PM 82.4 °F 83.9 °F 64.4 °F 54% 30.12 in 10.0 mi SE 4.6 mph - N/A   Clear
10:55 PM 82.4 °F 84.6 °F 66.2 °F 58% 30.12 in 10.0 mi SE 6.9 mph - N/A   Clear
11:15 PM 80.6 °F 83.2 °F 68.0 °F 65% 30.12 in 10.0 mi SE 4.6 mph - N/A   Clear
11:35 PM 80.6 °F 83.2 °F 68.0 °F 65% 30.13 in 10.0 mi SE 3.5 mph - N/A   Clear
11:55 PM 80.6 °F 83.2 °F 68.0 °F 65% 30.13 in 10.0 mi SE 8.1 mph - N/A   Clear